Showing default

OPS 2366 (TRANSIT 14), 2401

Orbit data source: Space-Track

OPS 2366 (TRANSIT 14), 2401 is a payload satellite owned by USN NAVAIR (US) in LEO that was launched on Thu, 18 Aug 1966 UTC via an SCOUT A launch vehicle from the Air Force Western Test Range (AFWTR). Payload-class satellites include a variety of spacecraft equipped with specific instruments for various scientific and technological missions. These include communications satellites like Starlink; space stations such as the ISS; scientific satellites like the Hubble; Earth observation satellites from companies like Planet Labs, Umbra, and HawkEye 360; GPS; miniature CubeSats for education and research; and military/defense satellites.

Loading next visibility...
Identifier
2401, 1966-076A
Orbit
LEO
Country
Flag of USUS
Related business
Manufacturer
APL
Mission
Spacecraft
Bus & Motor
TRANSIT 5, Unknown motor
Mass
~49 kg wet, ~49 kg dry
Launch date (UTC)
1966-08-18 (59 years ago)
Launch vehicle
SCOUT A
Launch site
Air Force Western Test Range (AFWTR)
Object type
Payload
Rocket body
Debris
Shape & HBR
Unknown
Radar Cross Section
Large (>1 m²)

Expand to show TLE details & history
Last TLE update: 15 hours ago

TLE from 15 hours ago
0 OPS 2366 (TRANSIT 14)
1  2401U 66076A   25353.50102934  .00000103  00000-0  13258-3 0  9990
2  2401  88.8475  86.8926 0034383 106.6391 268.3778 13.53908715926780
Epoch: 2025-12-19T12:01Z
TLE epoch observation values (Epoch: 2025-12-19T12:01:28.934Z)
Latitude
14.59146°
Longitude
178.47928°
Altitude
1,060.969 km
Speed
7.322 km/s
True Right ascension
05h 48m 45s
True Declination
14° 30' 41"
Sunlit
Object was in full shadow at epoch
Visualization orbit readout
Latitude
Unknown
Longitude
Unknown
Altitude
Unknown
Speed
Unknown
Apparent Right ascension
Unknown
Apparent Declination
Unknown
Sunlit
N/A
Visualization observer readout
Local Sidereal Time
01:37:36
Azimuth
Unknown
Elevation
Unknown
Doppler factor
Unknown
Orbital elements
Apogee altitude
1,080.517 km
Perigee altitude
1,029.403 km
Semi-major axis
7,433.097 km
Eccentricity
0.00344
Inclination
88.8475°
RAAN
86.8926°
Arg. of periapsis
106.6391°
True anomaly
267.98401°
Mean anomaly
268.3778°
Eccentric anomaly
268.1809°
Mean motion
3.38679 °/min
Orbital period
106.3 mins
BSTAR
0.00013258
Loading maneuver chart data...
Computing Atmospheric mass density...
Loading historical data...
Loading historical data...
Loading historical data...
Loading historical data...
Loading historical data...
Loading historical data...
Loading historical data...

Documentation

Showing up to 5 results
|